This is the latest recevied weather packets stored in our database for station/object N6WDO. If no packets are shown the sender has not sent any weather packets the latest 10 day(s).
| Time | Temp. | Humidity | Pressure | Rain* | Wind** | Luminosity | Snow |
|---|---|---|---|---|---|---|---|
| 1777933624 | 10.56° C | 91% | 1016.2 hPa | 0 mm | - | 137 W/m² | - |
| 1777933018 | 10.56° C | 91% | 1016.3 hPa | 0 mm | - | 131 W/m² | - |
| 1777932715 | 10.56° C | 91% | 1016.3 hPa | 0 mm | - | 171 W/m² | - |
| 1777931805 | 10° C | 93% | 1016.5 hPa | 1.27 mm | - | 138 W/m² | - |
| 1777929984 | 10° C | 93% | 1016.8 hPa | 0 mm | - | 51 W/m² | - |
| 1777929681 | 10° C | 93% | 1016.9 hPa | 0 mm | - | 55 W/m² | - |
| 1777929379 | 10° C | 93% | 1017 hPa | 0 mm | - | 75 W/m² | - |
| 1777929075 | 10.56° C | 92% | 1016.8 hPa | 0 mm | - | 86 W/m² | - |
| 1777928167 | 10.56° C | 92% | 1016.9 hPa | 0 mm | - | 101 W/m² | - |
| 1777922715 | 10° C | 91% | 1017.2 hPa | 0 mm | - | 111 W/m² | - |
| 1777919681 | 9.44° C | 95% | 1017.3 hPa | 0 mm | - | 104 W/m² | - |
| 1777919379 | 9.44° C | 95% | 1017.1 hPa | 1.78 mm | - | 105 W/m² | - |
| 1777919075 | 9.44° C | 96% | 1017.1 hPa | 1.78 mm | - | 98 W/m² | - |
| 1777918773 | 8.89° C | 96% | 1017.2 hPa | 0 mm | - | 90 W/m² | - |
| 1777918469 | 8.89° C | 96% | 1017.2 hPa | 0 mm | - | 101 W/m² | - |
| 1777918168 | 8.89° C | 96% | 1017.3 hPa | 0 mm | - | 87 W/m² | - |
| 1777917867 | 9.44° C | 96% | 1016.9 hPa | 0 mm | - | 71 W/m² | - |
| 1777917565 | 8.89° C | 96% | 1017.2 hPa | 0 mm | - | 70 W/m² | - |
| 1777916354 | 8.89° C | 97% | 1017 hPa | 1.27 mm | - | 78 W/m² | - |
| 1777916050 | 8.89° C | 97% | 1016.9 hPa | 1.27 mm | - | 72 W/m² | - |
| 1777915748 | 8.89° C | 97% | 1016.8 hPa | 1.27 mm | - | 62 W/m² | - |
| 1777915140 | 8.89° C | 97% | 1016.8 hPa | 0 mm | - | 47 W/m² | - |
| 1777914534 | 8.89° C | 97% | 1016.3 hPa | 0 mm | - | 59 W/m² | - |
| 1777914230 | 9.44° C | 97% | 1016.6 hPa | 0 mm | - | 44 W/m² | - |
| 1777913927 | 9.44° C | 97% | 1016.2 hPa | 0 mm | - | 31 W/m² | - |
* Rain latest hour (hover to see other rain measurements)
** Current wind speed in m/s (hover to see current wind gust speed)